Time,TemperatureF,DewpointF,PressureIn,WindDirection,WindDirectionDegrees,WindSpeedMPH,WindSpeedGustMPH,Humidity,HourlyPrecipIn,Conditions,Clouds,dailyrainin,SoftwareType,DateUTC
2013-05-27 00:00:00,44.1,36.0,30.24,SW,225,0.0,1.0,73,0.00,,,0.00,VWS V14.01,2013-05-27 04:00:00,
2013-05-27 00:15:00,43.5,36.5,30.24,SW,225,0.0,0.0,76,0.00,,,0.00,VWS V14.01,2013-05-27 04:15:00,
2013-05-27 00:30:00,43.1,36.4,30.24,SW,225,0.0,0.0,77,0.00,,,0.00,VWS V14.01,2013-05-27 04:30:00,
2013-05-27 00:45:00,42.5,36.5,30.24,SW,225,0.0,0.0,79,0.00,,,0.00,VWS V14.01,2013-05-27 04:45:00,
2013-05-27 01:00:00,42.1,36.4,30.24,SW,225,0.0,0.0,80,0.00,,,0.00,VWS V14.01,2013-05-27 05:00:00,
2013-05-27 01:15:00,41.7,36.3,30.24,SW,225,0.0,0.0,81,0.00,,,0.00,VWS V14.01,2013-05-27 05:15:00,
2013-05-27 01:30:00,41.4,36.0,30.24,SW,225,0.0,0.0,81,0.00,,,0.00,VWS V14.01,2013-05-27 05:30:00,
2013-05-27 01:45:00,41.1,35.7,30.24,SW,225,0.0,0.0,81,0.00,,,0.00,VWS V14.01,2013-05-27 05:45:00,
2013-05-27 02:00:00,40.8,36.0,30.25,SW,225,0.0,0.0,83,0.00,,,0.00,VWS V14.01,2013-05-27 06:00:00,
2013-05-27 02:15:00,40.5,36.0,30.24,SW,225,0.0,0.0,84,0.00,,,0.00,VWS V14.01,2013-05-27 06:15:00,
2013-05-27 02:30:00,40.1,36.0,30.25,SW,225,0.0,0.0,85,0.00,,,0.00,VWS V14.01,2013-05-27 06:30:00,
2013-05-27 02:45:00,40.0,35.9,30.25,SW,225,0.0,0.0,85,0.00,,,0.00,VWS V14.01,2013-05-27 06:45:00,
2013-05-27 03:00:00,39.8,35.7,30.25,SW,225,0.0,0.0,85,0.00,,,0.00,VWS V14.01,2013-05-27 07:00:00,
2013-05-27 03:15:00,39.5,35.7,30.25,SW,225,0.0,0.0,86,0.00,,,0.00,VWS V14.01,2013-05-27 07:15:00,
2013-05-27 03:30:00,39.2,35.7,30.25,SW,225,0.0,0.0,87,0.00,,,0.00,VWS V14.01,2013-05-27 07:30:00,
2013-05-27 03:45:00,39.0,35.5,30.25,SW,225,0.0,1.0,87,0.00,,,0.00,VWS V14.01,2013-05-27 07:45:00,
2013-05-27 04:00:00,38.7,35.5,30.25,SW,225,0.0,0.0,88,0.00,,,0.00,VWS V14.01,2013-05-27 08:00:00,
2013-05-27 04:15:00,38.4,35.2,30.25,SW,225,0.0,0.0,88,0.00,,,0.00,VWS V14.01,2013-05-27 08:15:00,
2013-05-27 04:30:00,38.2,35.0,30.25,SW,225,0.0,0.0,88,0.00,,,0.00,VWS V14.01,2013-05-27 08:30:00,
2013-05-27 04:45:00,37.9,34.7,30.26,SW,225,0.0,0.0,88,0.00,,,0.00,VWS V14.01,2013-05-27 08:45:00,
2013-05-27 05:00:00,37.8,34.9,30.26,SW,225,0.0,0.0,89,0.00,,,0.00,VWS V14.01,2013-05-27 09:00:00,
2013-05-27 05:15:00,37.7,34.8,30.26,SW,225,0.0,0.0,89,0.00,,,0.00,VWS V14.01,2013-05-27 09:15:00,
2013-05-27 05:30:00,37.5,34.6,30.26,SW,225,0.0,0.0,89,0.00,,,0.00,VWS V14.01,2013-05-27 09:30:00,
2013-05-27 05:45:00,37.5,34.6,30.27,SW,225,0.0,1.0,89,0.00,,,0.00,VWS V14.01,2013-05-27 09:45:00,
2013-05-27 06:00:00,37.2,34.5,30.27,NW,315,0.0,1.0,90,0.00,,,0.00,VWS V14.01,2013-05-27 10:00:00,
2013-05-27 06:15:00,37.9,35.5,30.27,NW,315,0.0,0.0,91,0.00,,,0.00,VWS V14.01,2013-05-27 10:15:00,
2013-05-27 06:30:00,38.7,36.3,30.27,NW,315,0.0,0.0,91,0.00,,,0.00,VWS V14.01,2013-05-27 10:30:00,
2013-05-27 06:45:00,40.4,37.4,30.27,NW,315,0.0,0.0,89,0.00,,,0.00,VWS V14.01,2013-05-27 10:45:00,
2013-05-27 07:00:00,42.2,37.7,30.27,NW,315,0.0,0.0,84,0.00,,,0.00,VWS V14.01,2013-05-27 11:00:00,
2013-05-27 07:15:00,44.8,37.7,30.27,NW,315,0.0,0.0,76,0.00,,,0.00,VWS V14.01,2013-05-27 11:15:00,
2013-05-27 07:30:00,46.6,39.5,30.27,NW,315,0.0,0.0,76,0.00,,,0.00,VWS V14.01,2013-05-27 11:30:00,
2013-05-27 07:45:00,49.5,39.8,30.28,NW,315,0.0,0.0,69,0.00,,,0.00,VWS V14.01,2013-05-27 11:45:00,
2013-05-27 08:00:00,50.7,37.8,30.28,NW,315,0.0,4.0,61,0.00,,,0.00,VWS V14.01,2013-05-27 12:00:00,
2013-05-27 08:15:00,51.2,40.2,30.28,WNW,292,0.0,4.0,66,0.00,,,0.00,VWS V14.01,2013-05-27 12:15:00,
2013-05-27 08:30:00,54.7,40.2,30.28,WNW,292,0.0,0.0,58,0.00,,,0.00,VWS V14.01,2013-05-27 12:30:00,
2013-05-27 08:45:00,55.2,38.4,30.28,WNW,292,0.0,7.0,53,0.00,,,0.00,VWS V14.01,2013-05-27 12:45:00,
2013-05-27 09:00:00,55.9,36.0,30.27,West,270,2.0,8.0,47,0.00,,,0.00,VWS V14.01,2013-05-27 13:00:00,
2013-05-27 09:15:00,56.6,35.5,30.28,WSW,248,3.0,8.0,45,0.00,,,0.00,VWS V14.01,2013-05-27 13:15:00,
2013-05-27 09:30:00,57.4,35.1,30.28,WSW,248,3.0,11.0,43,0.00,,,0.00,VWS V14.01,2013-05-27 13:30:00,
2013-05-27 09:45:00,58.3,35.9,30.27,West,270,3.0,9.0,43,0.00,,,0.00,VWS V14.01,2013-05-27 13:45:00,
2013-05-27 10:00:00,59.1,36.0,30.28,West,270,3.0,8.0,42,0.00,,,0.00,VWS V14.01,2013-05-27 14:00:00,
2013-05-27 10:15:00,59.5,35.8,30.27,West,270,5.0,9.0,41,0.00,,,0.00,VWS V14.01,2013-05-27 14:15:00,
2013-05-27 10:45:00,62.3,36.4,30.27,NNW,347,5.0,5.0,38,0.00,,,0.00,VWS V14.01,2013-05-27 14:45:00,
2013-05-27 10:50:00,63.4,35.3,30.27,West,281,0.0,11.0,35,0.00,,,0.00,VWS V14.01,2013-05-27 14:50:00,
2013-05-27 10:55:00,62.8,36.2,30.27,West,266,0.0,11.0,37,0.00,,,0.00,VWS V14.01,2013-05-27 14:55:00,
2013-05-27 11:00:00,63.1,37.1,30.26,SW,228,5.0,11.0,38,0.00,,,0.00,VWS V14.01,2013-05-27 15:00:00,
2013-05-27 11:05:00,62.5,37.2,30.26,WSW,242,4.0,11.0,39,0.00,,,0.00,VWS V14.01,2013-05-27 15:05:00,
2013-05-27 11:10:00,63.1,36.4,30.26,WSW,239,10.0,20.0,37,0.00,,,0.00,VWS V14.01,2013-05-27 15:10:00,
2013-05-27 11:15:00,63.9,35.7,30.26,West,281,4.0,20.0,35,0.00,,,0.00,VWS V14.01,2013-05-27 15:15:00,
2013-05-27 11:20:00,64.7,35.0,30.26,NW,312,0.0,4.0,33,0.00,,,0.00,VWS V14.01,2013-05-27 15:20:00,
2013-05-27 11:25:00,64.1,35.2,30.26,SW,215,0.0,8.0,34,0.00,,,0.00,VWS V14.01,2013-05-27 15:25:00,
2013-05-27 11:30:00,64.6,37.1,30.25,SSW,213,0.0,8.0,36,0.00,,,0.00,VWS V14.01,2013-05-27 15:30:00,
2013-05-27 11:35:00,65.1,38.2,30.25,SW,232,0.0,6.0,37,0.00,,,0.00,VWS V14.01,2013-05-27 15:35:00,
2013-05-27 11:40:00,66.0,36.1,30.25,NNW,336,0.0,11.0,33,0.00,,,0.00,VWS V14.01,2013-05-27 15:40:00,
2013-05-27 11:45:00,66.2,37.8,30.25,NNW,337,0.0,11.0,35,0.00,,,0.00,VWS V14.01,2013-05-27 15:45:00,
2013-05-27 11:50:00,66.8,34.4,30.25,WNW,283,7.0,9.0,30,0.00,,,0.00,VWS V14.01,2013-05-27 15:50:00,
2013-05-27 11:55:00,66.7,34.3,30.25,WSW,243,5.0,14.0,30,0.00,,,0.00,VWS V14.01,2013-05-27 15:55:00,
2013-05-27 12:00:00,67.3,34.0,30.25,WNW,284,0.0,14.0,29,0.00,,,0.00,VWS V14.01,2013-05-27 16:00:00,
2013-05-27 12:05:00,66.5,33.3,30.25,NE,52,0.0,8.0,29,0.00,,,0.00,VWS V14.01,2013-05-27 16:05:00,
2013-05-27 12:10:00,67.2,34.8,30.25,WSW,245,10.0,14.0,30,0.00,,,0.00,VWS V14.01,2013-05-27 16:10:00,
2013-05-27 12:15:00,66.7,33.5,30.24,West,280,0.0,14.0,29,0.00,,,0.00,VWS V14.01,2013-05-27 16:15:00,
2013-05-27 12:20:00,67.8,35.3,30.24,WSW,254,2.0,9.0,30,0.00,,,0.00,VWS V14.01,2013-05-27 16:20:00,
2013-05-27 12:25:00,68.2,35.6,30.24,WSW,254,11.0,13.0,30,0.00,,,0.00,VWS V14.01,2013-05-27 16:25:00,
2013-05-27 12:30:00,67.5,31.4,30.23,SW,215,6.0,13.0,26,0.00,,,0.00,VWS V14.01,2013-05-27 16:30:00,
2013-05-27 12:35:00,67.7,32.5,30.23,WNW,290,6.0,10.0,27,0.00,,,0.00,VWS V14.01,2013-05-27 16:35:00,
2013-05-27 12:40:00,67.7,35.2,30.23,SW,223,1.0,11.0,30,0.00,,,0.00,VWS V14.01,2013-05-27 16:40:00,
2013-05-27 12:44:00,68.5,34.1,30.23,SW,224,8.0,11.0,28,0.00,,,0.00,VWS V14.01,2013-05-27 16:44:00,
2013-05-27 12:45:00,68.7,37.7,30.23,WSW,251,6.0,11.0,32,0.00,,,0.00,VWS V14.01,2013-05-27 16:45:00,
2013-05-27 12:49:00,69.2,32.9,30.23,West,270,0.0,9.0,26,0.00,,,0.00,VWS V14.01,2013-05-27 16:49:00,
2013-05-27 12:54:00,68.7,33.4,30.23,West,263,13.0,13.0,27,0.00,,,0.00,VWS V14.01,2013-05-27 16:54:00,
2013-05-27 12:59:00,68.5,34.1,30.22,SW,234,4.0,13.0,28,0.00,,,0.00,VWS V14.01,2013-05-27 16:59:00,
2013-05-27 13:00:00,68.8,34.4,30.22,West,276,9.0,13.0,28,0.00,,,0.00,VWS V14.01,2013-05-27 17:00:00,
2013-05-27 13:04:00,69.0,33.7,30.22,West,277,5.0,10.0,27,0.00,,,0.00,VWS V14.01,2013-05-27 17:04:00,
2013-05-27 13:09:00,69.0,33.7,30.22,WNW,284,8.0,10.0,27,0.00,,,0.00,VWS V14.01,2013-05-27 17:09:00,
2013-05-27 13:14:00,69.5,33.1,30.21,WSW,244,8.0,15.0,26,0.00,,,0.00,VWS V14.01,2013-05-27 17:14:00,
2013-05-27 13:15:00,69.7,34.3,30.21,WSW,244,14.0,16.0,27,0.00,,,0.00,VWS V14.01,2013-05-27 17:15:00,
2013-05-27 13:19:00,68.8,33.5,30.21,WNW,285,9.0,14.0,27,0.00,,,0.00,VWS V14.01,2013-05-27 17:19:00,
2013-05-27 13:24:00,69.0,36.3,30.21,West,272,10.0,14.0,30,0.00,,,0.00,VWS V14.01,2013-05-27 17:24:00,
2013-05-27 13:29:00,70.3,34.8,30.21,NW,321,0.0,14.0,27,0.00,,,0.00,VWS V14.01,2013-05-27 17:29:00,
2013-05-27 13:30:00,70.3,34.8,30.21,West,261,9.0,14.0,27,0.00,,,0.00,VWS V14.01,2013-05-27 17:30:00,
2013-05-27 13:34:00,70.3,33.8,30.21,West,268,11.0,15.0,26,0.00,,,0.00,VWS V14.01,2013-05-27 17:34:00,
2013-05-27 13:39:00,70.0,34.5,30.21,SW,219,6.0,15.0,27,0.00,,,0.00,VWS V14.01,2013-05-27 17:39:00,
2013-05-27 13:44:00,70.5,34.9,30.20,West,264,6.0,15.0,27,0.00,,,0.00,VWS V14.01,2013-05-27 17:44:00,
2013-05-27 13:45:00,70.7,36.0,30.20,WSW,250,6.0,15.0,28,0.00,,,0.00,VWS V14.01,2013-05-27 17:45:00,
2013-05-27 13:49:00,70.8,34.2,30.20,West,266,4.0,9.0,26,0.00,,,0.00,VWS V14.01,2013-05-27 17:49:00,
2013-05-27 13:54:00,71.0,34.4,30.20,WNW,299,0.0,9.0,26,0.00,,,0.00,VWS V14.01,2013-05-27 17:54:00,
2013-05-27 13:59:00,70.8,33.3,30.20,WSW,244,6.0,14.0,25,0.00,,,0.00,VWS V14.01,2013-05-27 17:59:00,
2013-05-27 14:00:00,70.5,33.0,30.20,SW,230,3.0,14.0,25,0.00,,,0.00,VWS V14.01,2013-05-27 18:00:00,
2013-05-27 14:04:00,70.3,32.8,30.20,WSW,258,5.0,11.0,25,0.00,,,0.00,VWS V14.01,2013-05-27 18:04:00,
2013-05-27 14:09:00,71.0,33.4,30.20,West,259,0.0,11.0,25,0.00,,,0.00,VWS V14.01,2013-05-27 18:09:00,
2013-05-27 14:14:00,71.0,33.4,30.19,West,267,4.0,11.0,25,0.00,,,0.00,VWS V14.01,2013-05-27 18:14:00,
2013-05-27 14:15:00,71.2,33.6,30.19,NW,315,7.0,11.0,25,0.00,,,0.00,VWS V14.01,2013-05-27 18:15:00,
2013-05-27 14:19:00,71.5,33.9,30.19,NNW,342,1.0,8.0,25,0.00,,,0.00,VWS V14.01,2013-05-27 18:19:00,
2013-05-27 14:24:00,71.7,35.0,30.19,West,267,7.0,15.0,26,0.00,,,0.00,VWS V14.01,2013-05-27 18:24:00,
2013-05-27 14:29:00,71.5,33.9,30.19,West,271,11.0,16.0,25,0.00,,,0.00,VWS V14.01,2013-05-27 18:29:00,
2013-05-27 14:30:00,71.2,33.6,30.19,WSW,250,6.0,16.0,25,0.00,,,0.00,VWS V14.01,2013-05-27 18:30:00,
2013-05-27 14:34:00,71.0,34.4,30.19,West,272,5.0,10.0,26,0.00,,,0.00,VWS V14.01,2013-05-27 18:34:00,
2013-05-27 14:39:00,72.0,36.2,30.19,West,269,6.0,10.0,27,0.00,,,0.00,VWS V14.01,2013-05-27 18:39:00,
2013-05-27 14:44:00,71.4,33.8,30.18,NW,323,0.0,12.0,25,0.00,,,0.00,VWS V14.01,2013-05-27 18:44:00,
2013-05-27 14:45:00,71.5,35.8,30.18,SW,232,10.0,12.0,27,0.00,,,0.00,VWS V14.01,2013-05-27 18:45:00,
2013-05-27 14:49:00,70.8,33.3,30.18,WNW,284,5.0,11.0,25,0.00,,,0.00,VWS V14.01,2013-05-27 18:49:00,
2013-05-27 14:54:00,71.4,32.8,30.18,West,279,1.0,11.0,24,0.00,,,0.00,VWS V14.01,2013-05-27 18:54:00,
2013-05-27 14:59:00,71.5,33.9,30.18,West,266,10.0,12.0,25,0.00,,,0.00,VWS V14.01,2013-05-27 18:59:00,
2013-05-27 15:00:00,71.4,33.8,30.18,West,279,7.0,12.0,25,0.00,,,0.00,VWS V14.01,2013-05-27 19:00:00,
2013-05-27 15:04:00,71.2,32.6,30.18,WSW,254,0.0,8.0,24,0.00,,,0.00,VWS V14.01,2013-05-27 19:04:00,
2013-05-27 15:09:00,71.9,34.2,30.18,WSW,238,1.0,8.0,25,0.00,,,0.00,VWS V14.01,2013-05-27 19:09:00,
2013-05-27 15:14:00,72.7,34.9,30.18,West,265,6.0,13.0,25,0.00,,,0.00,VWS V14.01,2013-05-27 19:14:00,
2013-05-27 15:15:00,72.9,35.0,30.17,SSW,211,8.0,13.0,25,0.00,,,0.00,VWS V14.01,2013-05-27 19:15:00,
2013-05-27 15:19:00,72.9,35.0,30.17,West,261,10.0,13.0,25,0.00,,,0.00,VWS V14.01,2013-05-27 19:19:00,
2013-05-27 15:24:00,72.4,32.5,30.17,North,349,2.0,13.0,23,0.00,,,0.00,VWS V14.01,2013-05-27 19:24:00,
2013-05-27 15:29:00,72.9,36.0,30.17,West,273,5.0,13.0,26,0.00,,,0.00,VWS V14.01,2013-05-27 19:29:00,
2013-05-27 15:30:00,72.9,35.0,30.17,WNW,298,6.0,13.0,25,0.00,,,0.00,VWS V14.01,2013-05-27 19:30:00,
2013-05-27 15:34:00,73.1,33.1,30.17,West,259,6.0,11.0,23,0.00,,,0.00,VWS V14.01,2013-05-27 19:34:00,
2013-05-27 15:39:00,73.2,32.1,30.17,West,274,3.0,11.0,22,0.00,,,0.00,VWS V14.01,2013-05-27 19:39:00,
2013-05-27 15:44:00,73.6,32.5,30.17,SW,229,2.0,13.0,22,0.00,,,0.00,VWS V14.01,2013-05-27 19:44:00,
2013-05-27 15:45:00,73.6,31.3,30.17,WSW,248,0.0,13.0,21,0.00,,,0.00,VWS V14.01,2013-05-27 19:45:00,
2013-05-27 15:49:00,73.4,32.3,30.17,West,261,0.0,8.0,22,0.00,,,0.00,VWS V14.01,2013-05-27 19:49:00,
2013-05-27 15:54:00,74.5,33.2,30.17,SW,214,1.0,11.0,22,0.00,,,0.00,VWS V14.01,2013-05-27 19:54:00,
2013-05-27 15:59:00,74.6,33.3,30.17,WNW,298,8.0,11.0,22,0.00,,,0.00,VWS V14.01,2013-05-27 19:59:00,
2013-05-27 16:00:00,74.6,33.3,30.16,West,279,4.0,11.0,22,0.00,,,0.00,VWS V14.01,2013-05-27 20:00:00,
2013-05-27 16:04:00,74.5,34.3,30.16,West,279,8.0,12.0,23,0.00,,,0.00,VWS V14.01,2013-05-27 20:04:00,
2013-05-27 16:09:00,74.5,34.3,30.16,WSW,251,4.0,13.0,23,0.00,,,0.00,VWS V14.01,2013-05-27 20:09:00,
2013-05-27 16:14:00,74.8,33.5,30.16,NW,317,2.0,13.0,22,0.00,,,0.00,VWS V14.01,2013-05-27 20:14:00,
2013-05-27 16:15:00,75.0,32.5,30.16,NNE,13,0.0,13.0,21,0.00,,,0.00,VWS V14.01,2013-05-27 20:15:00,
2013-05-27 16:19:00,75.7,33.0,30.16,NE,52,2.0,7.0,21,0.00,,,0.00,VWS V14.01,2013-05-27 20:19:00,
2013-05-27 16:24:00,75.5,34.0,30.16,West,261,3.0,8.0,22,0.00,,,0.00,VWS V14.01,2013-05-27 20:24:00,
2013-05-27 16:29:00,74.6,32.1,30.16,WNW,283,0.0,9.0,21,0.00,,,0.00,VWS V14.01,2013-05-27 20:29:00,
2013-05-27 16:30:00,75.2,31.4,30.16,WNW,283,0.0,9.0,20,0.00,,,0.00,VWS V14.01,2013-05-27 20:30:00,
2013-05-27 16:34:00,75.2,32.6,30.16,SW,234,7.0,12.0,21,0.00,,,0.00,VWS V14.01,2013-05-27 20:34:00,
2013-05-27 16:39:00,74.1,31.7,30.16,SW,229,6.0,12.0,21,0.00,,,0.00,VWS V14.01,2013-05-27 20:39:00,
2013-05-27 16:44:00,73.9,32.7,30.16,SSW,211,12.0,16.0,22,0.00,,,0.00,VWS V14.01,2013-05-27 20:44:00,
2013-05-27 16:45:00,73.9,31.5,30.15,WSW,238,8.0,18.0,21,0.00,,,0.00,VWS V14.01,2013-05-27 20:45:00,
2013-05-27 16:49:00,73.6,32.5,30.15,WSW,247,5.0,11.0,22,0.00,,,0.00,VWS V14.01,2013-05-27 20:49:00,
2013-05-27 16:54:00,73.9,34.9,30.15,WSW,254,7.0,13.0,24,0.00,,,0.00,VWS V14.01,2013-05-27 20:54:00,
2013-05-27 16:59:00,73.8,33.7,30.15,West,270,8.0,13.0,23,0.00,,,0.00,VWS V14.01,2013-05-27 20:59:00,
2013-05-27 17:00:00,73.8,32.6,30.15,WSW,238,7.0,13.0,22,0.00,,,0.00,VWS V14.01,2013-05-27 21:00:00,
2013-05-27 17:04:00,73.4,33.4,30.15,West,267,9.0,11.0,23,0.00,,,0.00,VWS V14.01,2013-05-27 21:04:00,
2013-05-27 17:09:00,73.4,33.4,30.15,West,266,3.0,11.0,23,0.00,,,0.00,VWS V14.01,2013-05-27 21:09:00,
2013-05-27 17:14:00,73.1,34.2,30.15,WNW,290,9.0,13.0,24,0.00,,,0.00,VWS V14.01,2013-05-27 21:14:00,
2013-05-27 17:15:00,72.9,34.0,30.16,WSW,249,13.0,13.0,24,0.00,,,0.00,VWS V14.01,2013-05-27 21:15:00,
2013-05-27 17:19:00,72.7,34.9,30.16,West,280,8.0,13.0,25,0.00,,,0.00,VWS V14.01,2013-05-27 21:19:00,
2013-05-27 17:24:00,72.7,34.9,30.16,WNW,285,5.0,14.0,25,0.00,,,0.00,VWS V14.01,2013-05-27 21:24:00,
2013-05-27 17:29:00,72.6,33.8,30.16,West,263,7.0,14.0,24,0.00,,,0.00,VWS V14.01,2013-05-27 21:29:00,
2013-05-27 17:30:00,72.4,34.6,30.16,West,272,6.0,14.0,25,0.00,,,0.00,VWS V14.01,2013-05-27 21:30:00,
2013-05-27 17:34:00,72.6,34.8,30.16,West,262,6.0,10.0,25,0.00,,,0.00,VWS V14.01,2013-05-27 21:34:00,
2013-05-27 17:39:00,72.0,32.2,30.16,SW,227,12.0,18.0,23,0.00,,,0.00,VWS V14.01,2013-05-27 21:39:00,
2013-05-27 17:44:00,72.0,34.3,30.16,West,277,6.0,18.0,25,0.00,,,0.00,VWS V14.01,2013-05-27 21:44:00,
2013-05-27 17:45:00,72.0,33.3,30.16,West,268,10.0,18.0,24,0.00,,,0.00,VWS V14.01,2013-05-27 21:45:00,
2013-05-27 17:49:00,72.0,34.3,30.16,NNW,339,6.0,10.0,25,0.00,,,0.00,VWS V14.01,2013-05-27 21:49:00,
2013-05-27 17:54:00,72.0,33.3,30.16,WNW,299,6.0,13.0,24,0.00,,,0.00,VWS V14.01,2013-05-27 21:54:00,
2013-05-27 17:59:00,71.7,34.0,30.16,SW,232,6.0,13.0,25,0.00,,,0.00,VWS V14.01,2013-05-27 21:59:00,
2013-05-27 18:00:00,71.7,33.0,30.16,WSW,241,9.0,14.0,24,0.00,,,0.00,VWS V14.01,2013-05-27 22:00:00,
2013-05-27 18:04:00,71.5,33.9,30.16,SW,224,4.0,10.0,25,0.00,,,0.00,VWS V14.01,2013-05-27 22:04:00,
2013-05-27 18:09:00,71.4,33.8,30.16,WSW,256,7.0,11.0,25,0.00,,,0.00,VWS V14.01,2013-05-27 22:09:00,
2013-05-27 18:14:00,71.0,33.4,30.16,West,278,5.0,11.0,25,0.00,,,0.00,VWS V14.01,2013-05-27 22:14:00,
2013-05-27 18:15:00,71.0,33.4,30.16,SW,236,8.0,11.0,25,0.00,,,0.00,VWS V14.01,2013-05-27 22:15:00,
2013-05-27 18:19:00,70.8,34.2,30.16,West,276,6.0,8.0,26,0.00,,,0.00,VWS V14.01,2013-05-27 22:19:00,
2013-05-27 18:24:00,70.7,34.2,30.16,West,265,0.0,10.0,26,0.00,,,0.00,VWS V14.01,2013-05-27 22:24:00,
2013-05-27 18:29:00,70.7,34.2,30.16,SW,234,5.0,10.0,26,0.00,,,0.00,VWS V14.01,2013-05-27 22:29:00,
2013-05-27 18:30:00,70.7,34.2,30.16,WSW,240,6.0,10.0,26,0.00,,,0.00,VWS V14.01,2013-05-27 22:30:00,
2013-05-27 18:34:00,70.5,34.9,30.16,West,259,7.0,7.0,27,0.00,,,0.00,VWS V14.01,2013-05-27 22:34:00,
2013-05-27 18:39:00,70.2,34.7,30.16,WSW,256,0.0,8.0,27,0.00,,,0.00,VWS V14.01,2013-05-27 22:39:00,
2013-05-27 18:44:00,69.8,34.3,30.16,WNW,294,0.0,8.0,27,0.00,,,0.00,VWS V14.01,2013-05-27 22:44:00,
2013-05-27 18:45:00,69.8,35.3,30.16,West,275,0.0,8.0,28,0.00,,,0.00,VWS V14.01,2013-05-27 22:45:00,
2013-05-27 18:49:00,69.5,35.0,30.16,WSW,253,0.0,7.0,28,0.00,,,0.00,VWS V14.01,2013-05-27 22:49:00,
2013-05-27 18:54:00,69.3,35.7,30.16,WSW,254,0.0,7.0,29,0.00,,,0.00,VWS V14.01,2013-05-27 22:54:00,
2013-05-27 18:59:00,69.2,36.5,30.16,West,278,0.0,7.0,30,0.00,,,0.00,VWS V14.01,2013-05-27 22:59:00,
2013-05-27 19:00:00,69.0,36.3,30.16,West,276,0.0,7.0,30,0.00,,,0.00,VWS V14.01,2013-05-27 23:00:00,
2013-05-27 19:04:00,68.8,36.1,30.16,WSW,253,6.0,6.0,30,0.00,,,0.00,VWS V14.01,2013-05-27 23:04:00,
2013-05-27 19:09:00,68.7,37.7,30.16,SW,234,5.0,6.0,32,0.00,,,0.00,VWS V14.01,2013-05-27 23:09:00,
2013-05-27 19:14:00,68.5,37.5,30.16,WNW,286,0.0,8.0,32,0.00,,,0.00,VWS V14.01,2013-05-27 23:14:00,
2013-05-27 19:15:00,68.3,37.3,30.16,WNW,286,0.0,8.0,32,0.00,,,0.00,VWS V14.01,2013-05-27 23:15:00,
2013-05-27 19:19:00,68.3,37.3,30.16,SW,229,0.0,6.0,32,0.00,,,0.00,VWS V14.01,2013-05-27 23:19:00,
2013-05-27 19:23:00,68.2,37.2,30.16,West,265,0.0,6.0,32,0.00,,,0.00,VWS V14.01,2013-05-27 23:23:00,
2013-05-27 19:28:00,68.0,37.1,30.16,West,264,0.0,6.0,32,0.00,,,0.00,VWS V14.01,2013-05-27 23:28:00,
2013-05-27 19:30:00,68.0,37.1,30.16,West,264,0.0,6.0,32,0.00,,,0.00,VWS V14.01,2013-05-27 23:30:00,
2013-05-27 19:33:00,67.8,37.7,30.16,WSW,239,4.0,6.0,33,0.00,,,0.00,VWS V14.01,2013-05-27 23:33:00,
2013-05-27 19:38:00,67.5,37.4,30.16,WNW,292,0.0,6.0,33,0.00,,,0.00,VWS V14.01,2013-05-27 23:38:00,
2013-05-27 19:43:00,67.3,38.0,30.16,WNW,284,0.0,6.0,34,0.00,,,0.00,VWS V14.01,2013-05-27 23:43:00,
2013-05-27 19:45:00,67.2,37.9,30.16,WNW,284,0.0,6.0,34,0.00,,,0.00,VWS V14.01,2013-05-27 23:45:00,
2013-05-27 19:48:00,67.0,37.7,30.16,West,265,5.0,5.0,34,0.00,,,0.00,VWS V14.01,2013-05-27 23:48:00,
2013-05-27 19:53:00,66.8,37.6,30.16,West,265,0.0,5.0,34,0.00,,,0.00,VWS V14.01,2013-05-27 23:53:00,
2013-05-27 19:58:00,66.5,37.3,30.16,WSW,246,0.0,7.0,34,0.00,,,0.00,VWS V14.01,2013-05-27 23:58:00,
2013-05-27 20:00:00,66.5,38.0,30.16,WSW,247,0.0,7.0,35,0.00,,,0.00,VWS V14.01,2013-05-28 00:00:00,
2013-05-27 20:03:00,66.5,38.0,30.16,WSW,245,0.0,1.0,35,0.00,,,0.00,VWS V14.01,2013-05-28 00:03:00,
2013-05-27 20:08:00,66.2,38.5,30.16,WSW,238,4.0,6.0,36,0.00,,,0.00,VWS V14.01,2013-05-28 00:08:00,
2013-05-27 20:13:00,66.0,38.3,30.16,WSW,256,0.0,6.0,36,0.00,,,0.00,VWS V14.01,2013-05-28 00:13:00,
2013-05-27 20:15:00,65.9,38.9,30.17,WNW,285,0.0,6.0,37,0.00,,,0.00,VWS V14.01,2013-05-28 00:15:00,
2013-05-27 20:18:00,65.7,38.7,30.17,West,275,0.0,4.0,37,0.00,,,0.00,VWS V14.01,2013-05-28 00:18:00,
2013-05-27 20:23:00,65.5,39.9,30.17,West,265,0.0,4.0,39,0.00,,,0.00,VWS V14.01,2013-05-28 00:23:00,
2013-05-27 20:28:00,65.4,42.9,30.17,WNW,296,0.0,4.0,44,0.00,,,0.00,VWS V14.01,2013-05-28 00:28:00,
2013-05-27 20:30:00,65.2,42.8,30.17,WNW,296,0.0,4.0,44,0.00,,,0.00,VWS V14.01,2013-05-28 00:30:00,
2013-05-27 20:33:00,64.9,42.5,30.17,WNW,296,0.0,0.0,44,0.00,,,0.00,VWS V14.01,2013-05-28 00:33:00,
2013-05-27 20:38:00,64.4,43.8,30.17,WNW,284,0.0,4.0,47,0.00,,,0.00,VWS V14.01,2013-05-28 00:38:00,
2013-05-27 20:43:00,64.1,39.3,30.17,NNE,16,0.0,6.0,40,0.00,,,0.00,VWS V14.01,2013-05-28 00:43:00,
2013-05-27 20:45:00,63.9,39.1,30.18,NNE,16,0.0,6.0,40,0.00,,,0.00,VWS V14.01,2013-05-28 00:45:00,
2013-05-27 20:48:00,63.4,41.7,30.18,NNE,16,0.0,0.0,45,0.00,,,0.00,VWS V14.01,2013-05-28 00:48:00,
2013-05-27 20:53:00,62.6,42.1,30.18,SSE,154,2.0,4.0,47,0.00,,,0.00,VWS V14.01,2013-05-28 00:53:00,
2013-05-27 20:58:00,62.0,44.7,30.18,West,274,0.0,4.0,53,0.00,,,0.00,VWS V14.01,2013-05-28 00:58:00,
2013-05-27 21:00:00,61.7,42.9,30.17,WNW,298,0.0,4.0,50,0.00,,,0.00,VWS V14.01,2013-05-28 01:00:00,
2013-05-27 21:03:00,61.2,43.0,30.17,WNW,300,0.0,0.0,51,0.00,,,0.00,VWS V14.01,2013-05-28 01:03:00,
2013-05-27 21:08:00,60.8,42.6,30.17,East,84,0.0,2.0,51,0.00,,,0.00,VWS V14.01,2013-05-28 01:08:00,
2013-05-27 21:13:00,60.1,43.4,30.17,East,84,0.0,2.0,54,0.00,,,0.00,VWS V14.01,2013-05-28 01:13:00,
2013-05-27 21:15:00,59.7,43.0,30.18,East,84,0.0,2.0,54,0.00,,,0.00,VWS V14.01,2013-05-28 01:15:00,
2013-05-27 21:18:00,59.4,43.2,30.18,East,84,0.0,0.0,55,0.00,,,0.00,VWS V14.01,2013-05-28 01:18:00,
2013-05-27 21:23:00,58.9,42.8,30.18,East,84,0.0,0.0,55,0.00,,,0.00,VWS V14.01,2013-05-28 01:23:00,
2013-05-27 21:28:00,58.6,43.4,30.18,East,84,0.0,0.0,57,0.00,,,0.00,VWS V14.01,2013-05-28 01:28:00,
2013-05-27 21:30:00,58.5,43.3,30.18,East,84,0.0,0.0,57,0.00,,,0.00,VWS V14.01,2013-05-28 01:30:00,
2013-05-27 21:33:00,58.2,44.4,30.18,East,84,1.0,1.0,60,0.00,,,0.00,VWS V14.01,2013-05-28 01:33:00,
2013-05-27 21:38:00,57.7,43.9,30.18,East,84,0.0,1.0,60,0.00,,,0.00,VWS V14.01,2013-05-28 01:38:00,
2013-05-27 21:43:00,57.4,43.6,30.18,East,84,0.0,1.0,60,0.00,,,0.00,VWS V14.01,2013-05-28 01:43:00,
2013-05-27 21:45:00,57.4,43.2,30.19,East,84,0.0,1.0,59,0.00,,,0.00,VWS V14.01,2013-05-28 01:45:00,
2013-05-27 21:48:00,57.1,44.2,30.19,East,84,0.0,0.0,62,0.00,,,0.00,VWS V14.01,2013-05-28 01:48:00,
2013-05-27 21:53:00,56.9,44.5,30.19,East,84,0.0,0.0,63,0.00,,,0.00,VWS V14.01,2013-05-28 01:53:00,
2013-05-27 21:58:00,56.6,44.6,30.19,East,84,0.0,0.0,64,0.00,,,0.00,VWS V14.01,2013-05-28 01:58:00,
2013-05-27 22:00:00,56.5,44.1,30.19,East,84,0.0,0.0,63,0.00,,,0.00,VWS V14.01,2013-05-28 02:00:00,
2013-05-27 22:03:00,56.4,44.8,30.19,East,84,0.0,0.0,65,0.00,,,0.00,VWS V14.01,2013-05-28 02:03:00,
2013-05-27 22:08:00,56.2,44.2,30.19,East,84,0.0,0.0,64,0.00,,,0.00,VWS V14.01,2013-05-28 02:08:00,
2013-05-27 22:13:00,55.9,44.3,30.19,East,84,0.0,0.0,65,0.00,,,0.00,VWS V14.01,2013-05-28 02:13:00,
2013-05-27 22:15:00,55.9,44.7,30.19,East,84,0.0,0.0,66,0.00,,,0.00,VWS V14.01,2013-05-28 02:15:00,
2013-05-27 22:18:00,55.8,44.6,30.19,East,84,0.0,0.0,66,0.00,,,0.00,VWS V14.01,2013-05-28 02:18:00,
2013-05-27 22:23:00,55.5,43.9,30.19,East,84,0.0,1.0,65,0.00,,,0.00,VWS V14.01,2013-05-28 02:23:00,
2013-05-27 22:28:00,55.3,43.8,30.19,East,84,0.0,1.0,65,0.00,,,0.00,VWS V14.01,2013-05-28 02:28:00,
2013-05-27 22:30:00,55.2,43.7,30.19,East,84,1.0,2.0,65,0.00,,,0.00,VWS V14.01,2013-05-28 02:30:00,
2013-05-27 22:33:00,55.2,44.0,30.19,East,84,0.0,1.0,66,0.00,,,0.00,VWS V14.01,2013-05-28 02:33:00,
2013-05-27 22:38:00,55.0,43.9,30.19,East,84,0.0,1.0,66,0.00,,,0.00,VWS V14.01,2013-05-28 02:38:00,
2013-05-27 22:43:00,54.9,44.5,30.19,East,84,0.0,1.0,68,0.00,,,0.00,VWS V14.01,2013-05-28 02:43:00,
2013-05-27 22:45:00,54.7,44.0,30.20,East,84,0.0,1.0,67,0.00,,,0.00,VWS V14.01,2013-05-28 02:45:00,
2013-05-27 22:48:00,54.7,44.0,30.20,East,84,0.0,0.0,67,0.00,,,0.00,VWS V14.01,2013-05-28 02:48:00,
2013-05-27 22:53:00,54.6,44.3,30.20,East,84,0.0,0.0,68,0.00,,,0.00,VWS V14.01,2013-05-28 02:53:00,
2013-05-27 22:58:00,54.4,44.5,30.20,East,84,0.0,0.0,69,0.00,,,0.00,VWS V14.01,2013-05-28 02:58:00,
2013-05-27 23:00:00,54.4,44.8,30.20,East,84,0.0,0.0,70,0.00,,,0.00,VWS V14.01,2013-05-28 03:00:00,
2013-05-27 23:03:00,54.3,44.4,30.20,East,84,0.0,0.0,69,0.00,,,0.00,VWS V14.01,2013-05-28 03:03:00,
2013-05-27 23:08:00,54.1,44.5,30.20,East,84,0.0,0.0,70,0.00,,,0.00,VWS V14.01,2013-05-28 03:08:00,
2013-05-27 23:13:00,54.0,44.5,30.20,East,84,0.0,0.0,70,0.00,,,0.00,VWS V14.01,2013-05-28 03:13:00,
2013-05-27 23:15:00,54.0,44.5,30.20,East,84,0.0,0.0,70,0.00,,,0.00,VWS V14.01,2013-05-28 03:15:00,
2013-05-27 23:18:00,53.8,44.3,30.20,East,84,0.0,0.0,70,0.00,,,0.00,VWS V14.01,2013-05-28 03:18:00,
2013-05-27 23:23:00,53.7,44.2,30.20,East,84,0.0,0.0,70,0.00,,,0.00,VWS V14.01,2013-05-28 03:23:00,
2013-05-27 23:28:00,53.5,44.0,30.20,East,84,0.0,0.0,70,0.00,,,0.00,VWS V14.01,2013-05-28 03:28:00,
2013-05-27 23:30:00,53.5,44.0,30.20,East,84,0.0,0.0,70,0.00,,,0.00,VWS V14.01,2013-05-28 03:30:00,
2013-05-27 23:33:00,53.4,44.2,30.20,East,84,0.0,0.0,71,0.00,,,0.00,VWS V14.01,2013-05-28 03:33:00,
2013-05-27 23:38:00,53.2,43.7,30.20,East,84,0.0,0.0,70,0.00,,,0.00,VWS V14.01,2013-05-28 03:38:00,
2013-05-27 23:43:00,53.2,44.4,30.20,East,84,0.0,0.0,72,0.00,,,0.00,VWS V14.01,2013-05-28 03:43:00,
2013-05-27 23:45:00,53.1,44.3,30.20,East,84,0.0,0.0,72,0.00,,,0.00,VWS V14.01,2013-05-28 03:45:00,
2013-05-27 23:48:00,53.1,44.3,30.20,East,84,0.0,0.0,72,0.00,,,0.00,VWS V14.01,2013-05-28 03:48:00,
2013-05-27 23:53:00,53.0,44.2,30.20,East,84,0.0,0.0,72,0.00,,,0.00,VWS V14.01,2013-05-28 03:53:00,
2013-05-27 23:58:00,52.8,44.4,30.20,East,84,0.0,0.0,73,0.00,,,0.00,VWS V14.01,2013-05-28 03:58:00,